When you browse on this site, cookies collect data to enhance your experience and personalize the content and advertising you see.
Visit our Privacy Policy to learn more. By continuing to use the site, you agree to this use of cookies and data.
  • In United Kingdom
  • List of Countries
  • For 7 days
  • Water Temperature
  • Satellite Maps
  • Weather Map
  • Weather Widgets
  • user-avatar
    Login

    Hourly Weather Mevazor

    Today, 24 January, Thursday

    Time Temperature Precipitation Wind Pressure Humidity
    00:00 +1°C° 0 mm 3 mps 714 mmHg 47%
    01:00 +1°C° 0 mm 3 mps 714 mmHg 47%
    02:00 +1°C° 0 mm 3 mps 714 mmHg 47%
    03:00 +1°C° 0 mm 3 mps 714 mmHg 47%
    04:00 +1°C° 0 mm 3 mps 715 mmHg 47%
    05:00 +1°C° 0 mm 3 mps 715 mmHg 47%
    06:00 +1°C° 0 mm 3 mps 715 mmHg 48%
    07:00 +1°C° 0 mm 3 mps 716 mmHg 48%
    08:00 +3°C° 0 mm 3 mps 716 mmHg 45%
    09:00 +4°C° 0 mm 3 mps 716 mmHg 43%
    10:00 +7°C° 0 mm 2 mps 717 mmHg 41%
    11:00 +7°C° 0 mm 2 mps 717 mmHg 39%
    12:00 +9°C° 0 mm 1 mps 716 mmHg 38%
    13:00 +9°C° 0 mm 1 mps 716 mmHg 36%
    14:00 +9°C° 0 mm 1 mps 716 mmHg 39%
    15:00 +7°C° 0 mm 2 mps 716 mmHg 41%
    16:00 +7°C° 0 mm 2 mps 716 mmHg 44%
    17:00 +6°C° 0 mm 2 mps 716 mmHg 46%
    18:00 +4°C° 0 mm 3 mps 716 mmHg 47%
    19:00 +3°C° 0 mm 3 mps 716 mmHg 49%
    20:00 +3°C° 0 mm 3 mps 716 mmHg 48%
    21:00 +2°C° 0 mm 3 mps 716 mmHg 48%
    22:00 +2°C° 0 mm 3 mps 716 mmHg 47%
    23:00 +2°C° 0 mm 3 mps 716 mmHg 46%

    Tomorrow, 25 January, Friday

    Time Temperature Precipitation Wind Pressure Humidity
    00:00 +2°C° 0 mm 3 mps 715 mmHg 45%
    01:00 +2°C° 0 mm 3 mps 715 mmHg 44%
    02:00 +2°C° 0 mm 3 mps 715 mmHg 44%
    03:00 +2°C° 0 mm 3 mps 714 mmHg 43%
    04:00 +1°C° 0 mm 3 mps 714 mmHg 42%
    05:00 +1°C° 0 mm 3 mps 714 mmHg 41%
    06:00 +1°C° 0 mm 3 mps 714 mmHg 41%
    07:00 +1°C° 0 mm 3 mps 714 mmHg 40%
    08:00 +4°C° 0 mm 2 mps 714 mmHg 37%
    09:00 +6°C° 0 mm 2 mps 714 mmHg 34%
    10:00 +9°C° 0 mm 1 mps 714 mmHg 30%
    11:00 +10°C° 0 mm 1 mps 714 mmHg 29%
    12:00 +10°C° 0 mm 1 mps 713 mmHg 28%
    13:00 +11°C° 0 mm 1 mps 713 mmHg 26%
    14:00 +10°C° 0 mm 1 mps 713 mmHg 29%
    15:00 +10°C° 0 mm 1 mps 712 mmHg 32%
    16:00 +9°C° 0 mm 1 mps 712 mmHg 35%
    17:00 +7°C° 0 mm 2 mps 712 mmHg 37%
    18:00 +6°C° 0 mm 2 mps 712 mmHg 39%
    19:00 +4°C° 0 mm 3 mps 712 mmHg 42%
    20:00 +4°C° 0 mm 3 mps 712 mmHg 40%
    21:00 +4°C° 0 mm 3 mps 712 mmHg 39%
    22:00 +3°C° 0 mm 3 mps 712 mmHg 38%
    23:00 +3°C° 0 mm 3 mps 712 mmHg 36%

    Day after tomorrow, 26 January, Saturday

    Time Temperature Precipitation Wind Pressure Humidity
    00:00 +3°C° 0 mm 3 mps 712 mmHg 33%
    01:00 +3°C° 0 mm 3 mps 712 mmHg 31%
    02:00 +3°C° 0 mm 3 mps 711 mmHg 30%
    03:00 +3°C° 0 mm 4 mps 711 mmHg 29%
    04:00 +3°C° 0 mm 4 mps 711 mmHg 27%
    05:00 +3°C° 0 mm 4 mps 711 mmHg 27%
    06:00 +3°C° 0 mm 4 mps 711 mmHg 26%
    07:00 +3°C° 0 mm 4 mps 712 mmHg 26%
    08:00 +5°C° 0 mm 4 mps 712 mmHg 25%
    09:00 +7°C° 0 mm 4 mps 712 mmHg 24%
    10:00 +10°C° 0 mm 4 mps 713 mmHg 23%
    11:00 +11°C° 0 mm 3 mps 713 mmHg 22%
    12:00 +12°C° 0 mm 3 mps 712 mmHg 20%
    13:00 +13°C° 0 mm 3 mps 712 mmHg 19%
    14:00 +12°C° 0 mm 3 mps 712 mmHg 22%
    15:00 +11°C° 0 mm 3 mps 712 mmHg 25%
    16:00 +10°C° 0 mm 3 mps 712 mmHg 29%
    17:00 +9°C° 0 mm 3 mps 712 mmHg 30%
    18:00 +7°C° 0 mm 4 mps 712 mmHg 31%
    19:00 +6°C° 0 mm 4 mps 713 mmHg 32%
    20:00 +6°C° 0 mm 4 mps 713 mmHg 32%
    21:00 +6°C° 0 mm 4 mps 713 mmHg 32%
    22:00 +6°C° 0 mm 4 mps 713 mmHg 32%
    23:00 +6°C° 0 mm 4 mps 713 mmHg 35%

    27 January, Sunday

    Time Temperature Precipitation Wind Pressure Humidity
    00:00 +5°C° 0 mm 4 mps 713 mmHg 38%
    01:00 +5°C° 0 mm 4 mps 713 mmHg 41%
    02:00 +5°C° 0 mm 4 mps 713 mmHg 42%
    03:00 +5°C° 0 mm 4 mps 713 mmHg 44%
    04:00 +5°C° 0 mm 4 mps 713 mmHg 46%
    05:00 +5°C° 0 mm 4 mps 713 mmHg 46%
    06:00 +5°C° 0 mm 4 mps 713 mmHg 46%
    07:00 +5°C° 0 mm 4 mps 714 mmHg 46%
    08:00 +7°C° 0 mm 4 mps 714 mmHg 42%
    09:00 +8°C° 0 mm 4 mps 714 mmHg 38%
    10:00 +11°C° 0 mm 4 mps 715 mmHg 34%
    11:00 +12°C° 0 mm 4 mps 714 mmHg 33%
    12:00 +13°C° 0 mm 4 mps 714 mmHg 32%
    13:00 +13°C° 0 mm 3 mps 713 mmHg 31%
    14:00 +13°C° 0 mm 3 mps 713 mmHg 33%
    15:00 +12°C° 0 mm 3 mps 713 mmHg 36%
    16:00 +11°C° 0 mm 3 mps 712 mmHg 38%
    17:00 +11°C° 0 mm 3 mps 713 mmHg 39%
    18:00 +10°C° 0 mm 4 mps 713 mmHg 41%
    19:00 +8°C° 0 mm 4 mps 713 mmHg 42%
    20:00 +8°C° 0 mm 5 mps 713 mmHg 40%
    21:00 +7°C° 0 mm 5 mps 713 mmHg 39%
    22:00 +7°C° 0 mm 5 mps 712 mmHg 37%
    23:00 +7°C° 0 mm 5 mps 712 mmHg 36%

    28 January, Monday

    Time Temperature Precipitation Wind Pressure Humidity
    00:00 +7°C° 0 mm 5 mps 712 mmHg 35%
    01:00 +7°C° 0 mm 5 mps 712 mmHg 34%
    02:00 +7°C° 0 mm 5 mps 712 mmHg 35%
    03:00 +7°C° 0 mm 5 mps 712 mmHg 35%
    04:00 +7°C° 0 mm 5 mps 712 mmHg 35%
    05:00 +7°C° 0 mm 6 mps 712 mmHg 36%
    06:00 +7°C° 0 mm 6 mps 712 mmHg 36%
    07:00 +7°C° 0 mm 6 mps 712 mmHg 36%
    08:00 +9°C° 0 mm 6 mps 713 mmHg 33%
    09:00 +11°C° 0 mm 6 mps 713 mmHg 29%
    10:00 +15°C° 0 mm 6 mps 713 mmHg 26%
    11:00 +15°C° 0 mm 6 mps 712 mmHg 26%
    12:00 +16°C° 0 mm 6 mps 712 mmHg 25%
    13:00 +17°C° 0 mm 6 mps 712 mmHg 25%
    14:00 +16°C° 0 mm 6 mps 711 mmHg 27%
    15:00 +15°C° 0 mm 6 mps 711 mmHg 28%
    16:00 +14°C° 0 mm 6 mps 711 mmHg 30%
    17:00 +13°C° 0 mm 6 mps 710 mmHg 29%
    18:00 +11°C° 0 mm 6 mps 710 mmHg 29%
    19:00 +11°C° 0 mm 7 mps 710 mmHg 28%
    20:00 +11°C° 0 mm 7 mps 710 mmHg 28%
    21:00 +11°C° 0 mm 7 mps 710 mmHg 28%
    22:00 +11°C° 0 mm 7 mps 710 mmHg 28%
    23:00 +11°C° 0 mm 6 mps 709 mmHg 29%

    29 January, Tuesday

    Time Temperature Precipitation Wind Pressure Humidity
    00:00 +11°C° 0 mm 6 mps 709 mmHg 31%
    01:00 +11°C° 0 mm 6 mps 709 mmHg 33%
    02:00 +11°C° 0 mm 6 mps 708 mmHg 36%
    03:00 +13°C° 0 mm 6 mps 708 mmHg 39%
    04:00 +13°C° 0 mm 6 mps 708 mmHg 42%
    05:00 +13°C° 0.1 mm 6 mps 708 mmHg 42%
    06:00 +12°C° 0.1 mm 7 mps 708 mmHg 42%
    07:00 +12°C° 0.1 mm 7 mps 708 mmHg 42%
    08:00 +12°C° 0.3 mm 7 mps 708 mmHg 44%
    09:00 +12°C° 0.3 mm 7 mps 708 mmHg 46%
    10:00 +12°C° 0.3 mm 7 mps 707 mmHg 49%
    11:00 +14°C° 0.3 mm 7 mps 707 mmHg 48%
    12:00 +15°C° 0.3 mm 7 mps 706 mmHg 47%
    13:00 +16°C° 0.3 mm 7 mps 706 mmHg 46%
    14:00 +15°C° 0.2 mm 7 mps 706 mmHg 46%
    15:00 +15°C° 0.2 mm 6 mps 705 mmHg 47%
    16:00 +15°C° 0.2 mm 5 mps 705 mmHg 48%
    17:00 +15°C° 0.3 mm 5 mps 705 mmHg 49%
    18:00 +14°C° 0.3 mm 6 mps 705 mmHg 51%
    19:00 +14°C° 0.3 mm 6 mps 705 mmHg 52%
    20:00 +14°C° 0.2 mm 6 mps 705 mmHg 52%
    21:00 +14°C° 0.2 mm 6 mps 704 mmHg 51%
    22:00 +14°C° 0.2 mm 6 mps 704 mmHg 51%
    23:00 +14°C° 0.1 mm 6 mps 704 mmHg 52%
    Show more